[[{"header":{"parameterUnit":"m.s-1","parameterCategory":1,"la1":30.2991,"la2":30.254,"lo1":-89.0895,"lo2":-89.0444,"dy":0.0017,"dx":0.0017,"nx":28,"ny":28,"refTime":"2026-02-06T03:00:00:Z","depth":0,"parameterNumber":2,"parameterNumberName":"U-component_of_WINDS"},"data":[0,0,0,0,0,0,0,0,0,0,0,0,0,0,0,0,0,0,0,0,0,0,0,0,0,0,0,0,0,0,0,0,0,0,0,0,0,0,0,0,0,0,0,0,0,0,0,0,0,0,0,0,0,0,0,0,0,0,2.6654,2.6655,0,2.6746,2.6747,2.6748,2.6691,2.6688,2.6686,2.6683,2.678,2.6785,2.679,0,0,0,0,0,0,0,0,0,0,0,0,0,2.6431,2.6435,2.6654,2.6655,2.6656,2.6746,2.6747,2.6748,2.6692,2.6688,2.6685,2.6682,2.6778,2.6784,2.6791,0,0,0,0,0,0,0,0,0,0,0,0,0,2.6526,2.6437,2.6653,2.6638,2.6638,2.6745,2.6747,2.6749,2.6692,2.6688,2.6684,2.668,2.6776,2.6784,2.6791,2.692,0,0,2.6815,2.6818,0,0,0,0,0,0,0,0,2.652,2.6534,2.6639,2.664,2.6639,2.6703,2.6704,2.6806,2.6693,2.6672,2.6683,2.6678,2.6758,2.6767,2.6793,2.6924,2.6928,2.6815,2.682,2.6823,2.6826,0,0,0,0,0,0,0,2.6514,2.653,2.669,2.6641,2.6641,2.6628,2.6637,2.6723,2.6736,2.6673,2.6669,2.6681,2.6757,2.6786,2.6795,2.693,2.6815,2.6822,2.6827,2.683,2.7172,2.7176,0,0,0,0,0,0,2.6508,2.6525,2.6687,2.6693,2.6569,2.6635,2.6645,2.6687,2.6735,2.6739,2.6684,2.6678,2.6775,2.6786,2.6798,2.6952,2.6823,2.683,2.6835,2.7167,2.7173,2.7177,0,0,0,0,0,0,2.6504,2.6523,2.6683,2.6608,2.6627,2.6643,2.669,2.6691,2.6719,2.6744,2.6746,2.6711,2.6772,2.6787,2.689,2.6955,2.6834,2.6841,2.7162,2.7169,2.7175,2.7261,0,0,0,0,0,0,2.6497,2.6522,2.657,2.6609,2.6631,2.6773,2.6694,2.6695,2.6732,2.6725,2.6769,2.6773,2.677,2.6879,2.6897,2.6963,2.6847,2.7156,2.7165,2.7173,2.7252,2.727,2.7285,0,0,0,0,0,2.649,2.6591,2.6573,2.6593,2.6692,2.6777,2.679,2.6784,2.6738,2.6787,2.6803,2.6771,2.6944,2.689,2.691,2.6979,2.7152,2.7162,2.7172,2.7245,2.7266,2.7284,0,0,0,0,0,0,2.6561,2.6596,2.6576,2.6693,2.6733,2.6767,2.6829,2.6806,2.686,2.6851,2.6842,2.6852,2.696,2.6979,2.6918,2.7106,2.7041,2.7056,2.7089,2.711,2.7126,2.7119,2.6853,0,0,0,0,0,2.659,2.6655,2.6683,2.6783,2.6804,2.6813,2.685,2.6842,2.6883,2.6899,2.6922,2.6964,2.7027,2.7069,2.7129,2.7254,2.7264,2.7312,2.7328,2.7341,2.7355,2.7423,2.7445,2.7211,2.721,2.721,0,0,2.6651,2.6678,2.672,2.6798,2.6828,2.6896,2.6828,2.6903,2.6955,2.6911,2.7009,2.7028,2.7073,2.7188,2.724,2.7208,2.7421,2.7354,2.7364,2.7371,2.7436,2.7458,2.7478,2.7217,2.7216,2.7215,0,0,2.6797,2.6824,2.6911,2.6942,2.6987,2.6993,2.7014,2.7052,2.7062,2.7161,2.7129,2.719,2.73,2.7334,2.7365,2.7525,2.7499,2.7544,2.7629,2.7696,2.7715,2.7731,2.7789,2.781,2.7557,2.7558,2.7558,0,2.6868,2.6969,2.6959,2.7037,2.7073,2.7035,2.7124,2.7155,2.7218,2.7243,2.7206,2.7343,2.7371,2.7494,2.7533,2.7559,2.7584,2.754,2.7713,2.7729,2.7744,2.7799,2.7821,2.7563,2.7562,2.7562,2.7561,0,2.7055,2.7126,2.7191,2.7251,2.7294,2.7377,2.738,2.7425,2.7413,2.7423,2.7524,2.7556,2.7622,2.765,2.7639,2.7771,2.775,2.7713,2.7648,2.7772,2.7824,2.7845,2.7571,2.7569,2.7567,2.7566,0,0,2.725,2.7303,2.7327,2.7355,2.7401,2.7457,2.7538,2.7602,2.7641,2.7685,2.7754,2.7847,2.7813,2.7849,2.7842,2.7901,2.8026,2.7857,2.7858,2.7888,2.8175,2.8203,2.8228,2.8008,2.8012,2.8016,2.8172,0,2.74,2.7542,2.7535,2.7668,2.7734,2.7699,2.777,2.7807,2.7818,2.7876,2.7888,2.7955,2.7905,2.7926,2.7983,2.7999,2.8084,2.7987,2.8074,2.8077,2.8065,2.8255,2.8285,2.8431,2.8192,2.8195,2.8197,0,2.7595,2.7645,2.7784,2.7821,2.7849,2.7913,2.7971,2.8026,2.8068,2.8072,2.8112,2.8095,2.8178,2.811,2.8225,2.816,2.8195,2.8208,2.8213,2.8222,2.8146,2.827,2.8477,2.85,2.8229,2.8227,2.8224,0,2.7724,2.7827,2.7924,2.7948,2.7993,2.8039,2.8061,2.8098,2.8137,2.8187,2.8213,2.8273,2.8306,2.8353,2.8354,2.8303,2.8471,2.8402,2.8478,2.8478,2.8516,2.8514,2.8733,2.8536,2.8536,2.8535,2.8535,0,2.7894,2.7981,2.7983,2.8042,2.8139,2.813,2.8226,2.8243,2.8276,2.8339,2.8313,2.8373,2.8368,2.8429,2.843,2.8526,2.8541,2.8547,2.8547,2.8551,2.855,2.8574,2.8565,2.8541,2.854,2.8539,2.8538,0,2.8056,2.806,2.8164,2.8198,2.8208,2.8278,2.8308,2.8365,2.8373,2.8453,2.8472,2.8486,2.8556,2.856,2.8641,2.8642,2.8759,2.8747,2.8745,2.8743,2.8819,2.8812,2.9062,2.9095,2.8876,2.8878,2.888,0,2.8164,2.823,2.8271,2.8311,2.8335,2.8399,2.8439,2.8432,2.8475,2.8526,2.8578,2.8645,2.8699,2.8813,2.8831,2.8893,2.8883,2.8966,2.8892,2.8894,2.8885,2.8882,2.8889,2.8981,2.8983,2.8985,2.8987,0,2.8357,2.8356,2.8413,2.8471,2.8518,2.8564,2.8607,2.8641,2.864,2.8689,2.876,2.8801,2.8884,2.8952,2.9012,2.9035,2.9012,2.901,2.9031,2.9036,2.9033,2.9037,2.8786,2.9004,2.9003,2.9001,2.9,2.9,2.8496,2.8554,2.8591,2.8656,2.8687,2.8727,2.8783,2.8798,2.8856,2.8923,2.8915,2.8995,2.9034,2.9113,2.9141,2.9203,2.9175,2.9205,2.9213,2.9221,2.9229,2.9022,2.9214,2.9214,2.9213,2.9213,2.9212,0,2.8689,2.8711,2.877,2.883,2.8881,2.8853,2.8899,2.8944,2.9013,2.9052,2.9105,2.9187,2.9252,2.9275,2.9339,2.9385,2.9376,2.9402,2.9399,2.9405,2.925,2.9226,2.9408,2.9408,2.9408,2.9408,2.9408,2.9408,2.8795,2.889,2.8894,2.9004,2.9026,2.9103,2.9131,2.9169,2.9199,2.9292,2.9346,2.936,2.9392,2.9458,2.9517,2.9522,2.9548,2.9579,2.958,2.9435,2.9416,2.9397,2.9374,2.9584,2.9584,2.9729,2.973,2.9731]},{"header":{"parameterUnit":"m.s-1","parameterCategory":1,"la1":30.2991,"la2":30.254,"lo1":-89.0895,"lo2":-89.0444,"dy":0.0017,"dx":0.0017,"nx":28,"ny":28,"refTime":"2026-02-06T03:00:00:Z","depth":0,"parameterNumber":3,"parameterNumberName":"V-component_of_WINDS"},"data":[0,0,0,0,0,0,0,0,0,0,0,0,0,0,0,0,0,0,0,0,0,0,0,0,0,0,0,0,0,0,0,0,0,0,0,0,0,0,0,0,0,0,0,0,0,0,0,0,0,0,0,0,0,0,0,0,0,0,-0.7269,-0.727,0,-0.7437,-0.7439,-0.744,-0.7498,-0.7497,-0.7496,-0.7496,-0.7672,-0.7677,-0.7682,0,0,0,0,0,0,0,0,0,0,0,0,0,-0.7001,-0.7006,-0.7268,-0.7271,-0.7273,-0.7436,-0.7439,-0.7441,-0.7498,-0.7497,-0.7496,-0.7496,-0.767,-0.7676,-0.7682,0,0,0,0,0,0,0,0,0,0,0,0,0,-0.7138,-0.7007,-0.7268,-0.7321,-0.7327,-0.7436,-0.7439,-0.7442,-0.7498,-0.7497,-0.7496,-0.7495,-0.7668,-0.7675,-0.7683,-0.7753,0,0,-0.7708,-0.7711,0,0,0,0,0,0,0,0,-0.713,-0.7148,-0.7311,-0.7317,-0.7325,-0.7445,-0.7409,-0.7546,-0.7498,-0.7433,-0.7496,-0.7495,-0.7597,-0.7611,-0.7645,-0.7761,-0.7769,-0.7708,-0.7713,-0.7717,-0.7719,0,0,0,0,0,0,0,-0.7121,-0.7141,-0.7335,-0.7313,-0.7322,-0.7337,-0.7356,-0.7435,-0.7519,-0.7439,-0.7443,-0.7462,-0.7601,-0.7637,-0.7649,-0.7771,-0.7708,-0.7715,-0.772,-0.7723,-0.7955,-0.7957,0,0,0,0,0,0,-0.7102,-0.7132,-0.733,-0.734,-0.7223,-0.7343,-0.7363,-0.7408,-0.7518,-0.7534,-0.7463,-0.7464,-0.7624,-0.764,-0.7656,-0.7746,-0.7717,-0.7724,-0.7729,-0.7954,-0.7956,-0.7957,0,0,0,0,0,0,-0.7096,-0.7119,-0.7323,-0.7238,-0.7265,-0.7349,-0.7398,-0.7411,-0.7448,-0.7537,-0.7552,-0.7484,-0.7624,-0.7645,-0.7729,-0.7753,-0.7728,-0.7735,-0.7952,-0.7955,-0.7957,-0.7926,0,0,0,0,0,0,-0.7088,-0.7116,-0.7142,-0.7238,-0.7269,-0.7391,-0.7399,-0.7415,-0.7461,-0.7464,-0.7561,-0.7576,-0.7625,-0.7716,-0.7736,-0.7763,-0.7741,-0.7951,-0.7953,-0.7956,-0.7925,-0.7926,-0.7928,0,0,0,0,0,-0.7078,-0.7127,-0.7143,-0.7167,-0.7303,-0.7393,-0.7411,-0.7465,-0.7462,-0.749,-0.7548,-0.7573,-0.7747,-0.7724,-0.7748,-0.7777,-0.7949,-0.7953,-0.7956,-0.7924,-0.7926,-0.7928,0,0,0,0,0,0,-0.7034,-0.7141,-0.716,-0.7241,-0.7307,-0.7402,-0.7439,-0.7465,-0.7534,-0.7534,-0.76,-0.7621,-0.77,-0.7747,-0.7721,-0.7851,-0.785,-0.7857,-0.7818,-0.782,-0.7822,-0.7809,-0.7748,0,0,0,0,0,-0.7033,-0.7095,-0.7186,-0.7249,-0.7281,-0.7354,-0.7395,-0.7431,-0.7503,-0.7531,-0.7595,-0.7664,-0.7735,-0.778,-0.785,-0.7932,-0.7955,-0.7964,-0.7965,-0.7966,-0.7972,-0.802,-0.8026,-0.7968,-0.7968,-0.7967,0,0,-0.7033,-0.7099,-0.7135,-0.7242,-0.7298,-0.7362,-0.7377,-0.7445,-0.7494,-0.7542,-0.7625,-0.7674,-0.7757,-0.784,-0.788,-0.7881,-0.7993,-0.797,-0.797,-0.7976,-0.8024,-0.803,-0.8034,-0.797,-0.7969,-0.7969,0,0,-0.7066,-0.7122,-0.7181,-0.7236,-0.732,-0.7368,-0.7382,-0.7474,-0.7508,-0.7592,-0.763,-0.769,-0.781,-0.7867,-0.7912,-0.7968,-0.7994,-0.7989,-0.7996,-0.8043,-0.8047,-0.8052,-0.8073,-0.808,-0.7995,-0.7995,-0.7995,0,-0.7056,-0.7153,-0.7208,-0.7274,-0.7321,-0.7367,-0.7428,-0.748,-0.7582,-0.7614,-0.7614,-0.7766,-0.7825,-0.7923,-0.7936,-0.7971,-0.7991,-0.7978,-0.8042,-0.8047,-0.8052,-0.8073,-0.808,-0.7994,-0.7994,-0.7994,-0.7994,0,-0.7137,-0.7204,-0.7242,-0.7339,-0.739,-0.7453,-0.752,-0.7565,-0.7597,-0.7646,-0.7732,-0.7804,-0.7889,-0.7916,-0.7947,-0.8019,-0.8017,-0.8029,-0.8028,-0.8055,-0.8076,-0.8085,-0.7992,-0.7992,-0.7993,-0.7993,0,0,-0.7146,-0.7273,-0.7286,-0.7331,-0.7427,-0.7481,-0.7547,-0.763,-0.7668,-0.7738,-0.7796,-0.7896,-0.7908,-0.7959,-0.7998,-0.8038,-0.808,-0.8046,-0.8049,-0.805,-0.8165,-0.8156,-0.8164,-0.8097,-0.8099,-0.8101,-0.8158,0,-0.7192,-0.731,-0.7363,-0.7458,-0.7522,-0.7567,-0.7625,-0.7691,-0.7738,-0.78,-0.7854,-0.7924,-0.7934,-0.7965,-0.8007,-0.8065,-0.8104,-0.8062,-0.8154,-0.8156,-0.8132,-0.8175,-0.8165,-0.8216,-0.8166,-0.8168,-0.8169,0,-0.7261,-0.733,-0.7431,-0.752,-0.7549,-0.76,-0.7681,-0.7739,-0.7816,-0.7848,-0.7905,-0.7942,-0.8015,-0.801,-0.8112,-0.8083,-0.8123,-0.8158,-0.8161,-0.8172,-0.8164,-0.8188,-0.8233,-0.8241,-0.8182,-0.8181,-0.818,0,-0.7259,-0.7377,-0.7453,-0.749,-0.7596,-0.7631,-0.7677,-0.7752,-0.7799,-0.7871,-0.7902,-0.7981,-0.8025,-0.8086,-0.8145,-0.8135,-0.8242,-0.8241,-0.8272,-0.8271,-0.8293,-0.8291,-0.8346,-0.8318,-0.8318,-0.8317,-0.8317,0,-0.7305,-0.7365,-0.7453,-0.75,-0.757,-0.763,-0.7698,-0.7748,-0.7815,-0.7874,-0.7918,-0.7972,-0.8046,-0.8111,-0.8157,-0.8236,-0.8255,-0.8284,-0.8296,-0.8281,-0.8277,-0.8309,-0.8307,-0.832,-0.8319,-0.8319,-0.8318,0,-0.7314,-0.7375,-0.7461,-0.7554,-0.7579,-0.7627,-0.7708,-0.7756,-0.7806,-0.788,-0.79,-0.7979,-0.8058,-0.8122,-0.8225,-0.8256,-0.8339,-0.8352,-0.8312,-0.8319,-0.8346,-0.8343,-0.8425,-0.8439,-0.84,-0.84,-0.84,0,-0.7339,-0.7387,-0.7485,-0.7527,-0.7572,-0.7639,-0.7687,-0.7749,-0.7798,-0.7889,-0.7927,-0.8008,-0.8076,-0.8199,-0.8267,-0.8346,-0.8362,-0.8386,-0.8375,-0.8358,-0.8364,-0.8361,-0.8367,-0.8387,-0.8387,-0.8387,-0.8387,0,-0.7379,-0.7407,-0.7473,-0.7551,-0.7607,-0.7672,-0.7737,-0.777,-0.7844,-0.7897,-0.7977,-0.8029,-0.8134,-0.8215,-0.8302,-0.8351,-0.8382,-0.839,-0.8401,-0.8387,-0.8362,-0.8377,-0.8316,-0.8388,-0.8388,-0.8388,-0.8387,-0.8387,-0.7398,-0.7442,-0.7519,-0.7592,-0.7648,-0.7709,-0.7759,-0.7815,-0.7882,-0.7971,-0.8005,-0.8087,-0.8164,-0.8284,-0.8334,-0.84,-0.8404,-0.842,-0.8425,-0.8428,-0.8426,-0.8351,-0.8416,-0.8416,-0.8416,-0.8416,-0.8416,0,-0.744,-0.7491,-0.7558,-0.7648,-0.7707,-0.7729,-0.7804,-0.7851,-0.7923,-0.7992,-0.8058,-0.8151,-0.8229,-0.8303,-0.8386,-0.8425,-0.8442,-0.8445,-0.8443,-0.8455,-0.8418,-0.84,-0.8431,-0.8431,-0.8431,-0.8431,-0.8431,-0.843,-0.7469,-0.7546,-0.7583,-0.769,-0.7741,-0.7821,-0.7862,-0.7919,-0.7974,-0.8075,-0.8141,-0.8188,-0.826,-0.8348,-0.8422,-0.8442,-0.8471,-0.8471,-0.8495,-0.8459,-0.8457,-0.8455,-0.8438,-0.8477,-0.8477,-0.8526,-0.8527,-0.8527]}]]